Location: Cleveland
(41.4990°N, 81.6960°W)
Time: 15:18:40
(UTC-04:00)

N. Korean satellite - Pass Details

Date: 28 September 2021
Orbit: 450 x 495 km, 97.3° (Epoch: 16 October)

Event Time Altitude Azimuth Distance (km) Brightness Sun altitude
Rises 05:58:19 0° 27° (NNE) 2,540 10.8 -16.2°
Reaches altitude 10° 06:00:44 10° 43° (NE) 1,664 10.1 -15.7°
Maximum altitude 06:03:32 22° 95° (E) 1,120 9.3 -15.2°
Drops below altitude 10° 06:06:22 10° 147° (SSE) 1,671 9.6 -14.7°
Sets 06:08:47 0° 163° (SSE) 2,554 10.3 -14.2°
